This demonstration page uses our WeatherBlox Daily Observations layout. Learn more.

41.55636, -103.73856

Hourly Observations for November 10, 2015

Temp ( °F °C ) Dew Point ( °F °C ) Humidity (%) Winds ( mph kmh ) Pressure ( in mb ) Visibility ( mi km ) Precip ( " mm )
12:53 am 00:53 Clear 30 -1.1 25 -3.9 82 82 Calm 29.83 1010 10 16.0934 0 0
1:53 am 01:53 Clear 28 -2.2 25 -3.9 88 88 NE 6 9 29.83 1010 10 16.0934 0 0
2:53 am 02:53 Clear 26 -3.3 23 -5 88 88 N 6 9 29.83 1010 10 16.0934 0 0
3:53 am 03:53 Clear 28 -2.2 24 -4.4 85 85 SSW 3 6 29.81 1010 10 16.0934 0 0
4:53 am 04:53 Clear 25 -3.9 22 -5.6 88 88 N 5 7 29.85 1011 10 16.0934 0 0
5:53 am 05:53 Clear 25 -3.9 21 -6.1 85 85 Calm 29.88 1012 10 16.0934 0 0
6:53 am 06:53 Sunny 26 -3.3 22 -5.6 84 84 N 5 7 29.91 1013 10 16.0934 0 0
7:53 am 07:53 Sunny 33 0.6 28 -2.2 82 82 N 6 9 29.9 1012 10 16.0934 0 0
8:53 am 08:53 Sunny 39 3.9 28 -2.2 65 65 WNW 3 6 29.89 1012 10 16.0934 0 0
9:53 am 09:53 Sunny 46 7.8 28 -2.2 50 50 Calm 29.88 1012 10 16.0934 0 0
10:53 am 10:53 Sunny 54 12.2 29 -1.7 38 38 Calm 29.84 1011 10 16.0934 0 0
11:53 am 11:53 Sunny 59 15 30 -1.1 33 33 Calm 29.81 1009 10 16.0934 0 0
12:53 pm 12:53 Sunny 62 16.7 27 -2.8 26 26 VRB 3 6 29.77 1008 10 16.0934 0 0
1:53 pm 13:53 Sunny 64 17.8 26 -3.3 24 24 VRB 3 6 29.74 1007 10 16.0934 0 0
2:53 pm 14:53 Sunny 63 17.2 27 -2.8 26 26 N 9 15 29.73 1007 10 16.0934 0 0
3:53 pm 15:53 Sunny 60 15.6 30 -1.1 32 32 NNE 7 11 29.72 1007 10 16.0934 0 0
4:53 pm 16:53 Clear 52 11.1 30 -1.1 43 43 NNE 18 30 29.76 1008 10 16.0934 0 0
5:53 pm 17:53 Mostly Cloudy 47 8.3 28 -2.2 48 48 NNE 22 35 29.79 1009 10 16.0934 0 0
6:53 pm 18:53 Cloudy 46 7.8 27 -2.8 47 47 NNE 17 28 29.82 1010 10 16.0934 0 0
7:53 pm 19:53 Mostly Cloudy 42 5.6 28 -2.2 58 58 N 14 22 29.85 1011 10 16.0934 0 0
8:53 pm 20:53 Mostly Cloudy 39 3.9 30 -1.1 70 70 N 9 15 29.86 1011 10 16.0934 0 0
9:53 pm 21:53 Cloudy 37 2.8 30 -1.1 76 76 NNE 14 22 29.8 1009 10 16.0934 0 0
10:35 pm 22:35 Cloudy 37 2.8 30 -1.1 76 76 N 9 15 29.85 1011 10 16.0934 0 0
10:53 pm 22:53 Cloudy 37 2.8 30 -1.1 76 76 NE 8 13 29.79 1009 10 16.0934 0 0
11:11 pm 23:11 Cloudy 37 2.8 30 -1.1 76 76 NE 16 26 29.85 1011 10 16.0934 0 0
11:53 pm 23:53 Cloudy 36 2.2 31 -0.6 82 82 NNE 14 22 29.76 1008 10 16.0934 0 0

Powered by AerisWeather